User: anonymous   Login
Location: Asheville, NC
(35.6000°N, 82.5500°W)
Time: 05:35:50
(UTC-05:00)
Language:

PicSat - Orbit

View from above orbital plane
View from above orbital plane
View from above satellite
View from above satellite

Ground track
Ground track

The orbit data is extracted from the following two-line orbital elements,

1 43131U 18004W   18048.16177672  .00001963  00000-0  88237-4 0  9994
2 43131  97.5501 110.4447 0010804 150.7507 209.4336 15.22316276  5456
Epoch (UTC): 17 February 2018 03:52:57
Eccentricity: 0.0010804
inclination: 97.5501°
perigee height: 491 km
apogee height: 506 km
right ascension of ascending node: 110.4447°
argument of perigee: 150.7507°
revolutions per day: 15.22316276
mean anomaly at epoch: 209.4336°
orbit number at epoch: 545

The dashed part of the orbit path shows where the satellite is in the earth's shadow,  

DLR